INMARSAT 5-F3

导读 | 星芒AI

INMARSAT 5-F3 是一颗由 Inmarsat 运营的先进宽带通信卫星,于2014年发射,位于东经64.5度轨道位置。该卫星是 Inmarsat 的 Global Xpress 网络的一部分,提供高速宽带服务,广泛应用于航空、海事和陆地移动通信领域。它采用Ka波段技术,支持高清语音、视频会议和数据传输,显著提升了全球移动通信的质量和覆盖范围。

基本信息
目录编号:
40882
目录名称:
INMARSAT 5-F3
国际标识:
2015-042A
轨道中心:
EARTH
卫星名称:
INMARSAT 5-F3
卫星全名:
--
卫星状态:
在轨 (已飞行3715 天)
发射日期:
2015-08-28 UTC
国别 :
(IM)
星等 :
--
轨道信息
数据来源 国际轨道数据
星历时间: 2025-10-27T23:38:07+0800
1天前
查看轨道信息
半长轴: 42164.896km
偏心率: 0.0000552
轨道倾角: 0.019°
近地点辐角 230.020°
升交点赤经 186.976°
平近点角 33.385°
近地点: 35784.433km
远地点: 35789.089km
周期: 1436.105分钟
每日圈数: 1.002712
详细信息
使用方式:
暂无
2D轨道图
3D轨道图
轨道高度分析图
轨道倾角分析图
轨道综合分析图
查看轨道综合分析图